Tracking 26321 objects as of 27-Nov-2022
HD Live streaming from Space Station
objects crossing your sky now

STARLINK-3892

Track STARLINK-3892 now!
10-day predictions
STARLINK-3892 is classified as:


NORAD ID: 52488
Int'l Code: 2022-049AP
Perigee: 545.3 km
Apogee: 548.4 km
Inclination: 53.2 °
Period: 95.4 minutes
Semi major axis: 6917 km
RCS: Unknown
Launch date: May 6, 2022
Source: United States (US)
Launch site: AIR FORCE EASTERN TEST RANGE (AFETR)
aabbcc
Your satellite tracking list
Your tracking list is empty




NASA's NSSDC Master Catalog

Two Line Element Set (TLE):
1 52488U 22049AP  22330.60192818  .00002569  00000-0  17942-3 0  9997
2 52488  53.2196  42.0438 0002224  34.8866 325.2272 15.08847963 31234
Source of the keplerian elements: AFSPC